| time (UTC) | temp F | wind direction | speed knots | gust knots | rain 1hr in | rain 24hr in | rain mn in | humidity % | barometer mb |
| 20260509023756 | 60 | 46 | 1.7 | 13.9 | 0.00 | 0.00 | 0.00 | 44 | 1005.5 |
| 20260509022740 | 61 | 15 | 1.7 | 7.8 | 0.00 | 0.00 | 0.00 | 45 | 1005.2 |
| 20260509021742 | 61 | 17 | 2.6 | 6.1 | 0.00 | 0.00 | 0.00 | 45 | 1005.0 |
| 20260509020746 | 62 | 20 | 1.7 | 8.7 | 0.00 | 0.00 | 0.00 | 44 | 1004.8 |
| 20260509015747 | 62 | 319 | 6.1 | 8.7 | 0.00 | 0.00 | 0.00 | 43 | 1004.7 |
| 20260509014749 | 63 | 10 | 6.1 | 12.2 | 0.00 | 0.02 | 0.00 | 43 | 1004.8 |
| 20260509013749 | 64 | 348 | 6.1 | 14.8 | 0.00 | 0.02 | 0.00 | 42 | 1004.8 |
| 20260509012753 | 65 | 7 | 7.8 | 15.6 | 0.00 | 0.02 | 0.00 | 40 | 1004.7 |
| 20260509011757 | 64 | 357 | 9.6 | 17.4 | 0.00 | 0.02 | 0.00 | 40 | 1004.8 |
| 20260509010758 | 65 | 355 | 8.7 | 19.1 | 0.00 | 0.02 | 0.00 | 38 | 1004.4 |
| 20260509005820 | 68 | 301 | 13.0 | 26.1 | 0.00 | 0.02 | 0.00 | 35 | 1004.6 |
| 20260509004743 | 70 | 284 | 14.8 | 17.4 | 0.00 | 0.02 | 0.00 | 30 | 1005.0 |
| 20260509003743 | 70 | 315 | 5.2 | 20.0 | 0.00 | 0.02 | 0.00 | 31 | 1004.5 |
| 20260509002744 | 71 | 314 | 9.6 | 20.9 | 0.00 | 0.02 | 0.00 | 28 | 1004.4 |
| 20260509001742 | 72 | 255 | 7.8 | 20.0 | 0.00 | 0.02 | 0.00 | 27 | 1004.1 |
| 20260509000747 | 72 | 261 | 10.4 | 17.4 | 0.00 | 0.02 | 0.00 | 27 | 1004.3 |
| 20260508235751 | 73 | 279 | 13.9 | 20.0 | 0.00 | 0.02 | 0.00 | 27 | 1004.3 |
| 20260508234752 | 73 | 226 | 11.3 | 19.1 | 0.00 | 0.02 | 0.00 | 26 | 1004.3 |
| 20260508233752 | 73 | 278 | 11.3 | 18.2 | 0.00 | 0.02 | 0.00 | 26 | 1004.0 |
| 20260508232752 | 73 | 294 | 19.1 | 19.1 | 0.00 | 0.02 | 0.00 | 26 | 1004.1 |
| 20260508231740 | 73 | 287 | 8.7 | 10.4 | 0.00 | 0.02 | 0.00 | 26 | 1004.3 |
| 20260508230803 | 73 | 204 | 5.2 | 9.6 | 0.00 | 0.02 | 0.00 | 27 | 1004.3 |
| 20260508225742 | 73 | 263 | 9.6 | 11.3 | 0.00 | 0.02 | 0.00 | 29 | 1004.4 |
| 20260508224742 | 73 | 257 | 9.6 | 13.9 | 0.00 | 0.02 | 0.00 | 27 | 1004.7 |
| 20260508223747 | 74 | 225 | 7.8 | 15.6 | 0.00 | 0.02 | 0.00 | 27 | 1004.6 |
| 20260508222749 | 74 | 206 | 8.7 | 14.8 | 0.00 | 0.02 | 0.00 | 27 | 1004.9 |
| 20260508221749 | 73 | 246 | 10.4 | 15.6 | 0.00 | 0.02 | 0.00 | 27 | 1005.0 |
| 20260508220754 | 74 | 244 | 9.6 | 15.6 | 0.00 | 0.02 | 0.00 | 27 | 1005.2 |
| 20260508215753 | 74 | 212 | 4.3 | 14.8 | 0.00 | 0.02 | 0.00 | 26 | 1005.1 |
| 20260508214757 | 75 | 242 | 7.8 | 18.2 | 0.00 | 0.02 | 0.00 | 26 | 1005.3 |
| 20260508213757 | 75 | 237 | 10.4 | 18.2 | 0.00 | 0.02 | 0.00 | 25 | 1005.5 |
| 20260508212756 | 73 | 184 | 11.3 | 17.4 | 0.00 | 0.02 | 0.00 | 27 | 1005.7 |
| 20260508211818 | 73 | 273 | 6.1 | 19.1 | 0.00 | 0.02 | 0.00 | 27 | 1006.0 |
| 20260508210741 | 75 | 265 | 11.3 | 19.1 | 0.00 | 0.02 | 0.00 | 26 | 1006.2 |
| 20260508205802 | 74 | 262 | 13.9 | 13.9 | 0.00 | 0.02 | 0.00 | 26 | 1006.5 |
| 20260508204801 | 73 | 247 | 8.7 | 17.4 | 0.00 | 0.02 | 0.00 | 26 | 1006.8 |
| 20260508203744 | 73 | 263 | 9.6 | 21.7 | 0.00 | 0.02 | 0.00 | 27 | 1006.9 |
| 20260508202746 | 72 | 267 | 7.0 | 17.4 | 0.00 | 0.02 | 0.00 | 27 | 1007.1 |
| 20260508201746 | 72 | 257 | 9.6 | 16.5 | 0.00 | 0.02 | 0.00 | 27 | 1007.3 |
| 20260508200810 | 72 | 188 | 4.3 | 13.0 | 0.00 | 0.02 | 0.00 | 28 | 1007.2 |
| 20260508195748 | 72 | 213 | 10.4 | 16.5 | 0.00 | 0.02 | 0.00 | 28 | 1007.4 |
| 20260508194749 | 72 | 227 | 10.4 | 13.9 | 0.00 | 0.02 | 0.00 | 28 | 1007.7 |
| 20260508193751 | 71 | 234 | 4.3 | 13.0 | 0.00 | 0.02 | 0.00 | 27 | 1007.6 |
| 20260508192755 | 71 | 238 | 12.2 | 14.8 | 0.00 | 0.02 | 0.00 | 30 | 1007.8 |
| 20260508191754 | 71 | 258 | 8.7 | 15.6 | 0.00 | 0.02 | 0.00 | 28 | 1008.1 |
| 20260508190756 | 70 | 252 | 5.2 | 13.9 | 0.00 | 0.02 | 0.00 | 29 | 1008.2 |
| 20260508185755 | 69 | 236 | 8.7 | 12.2 | 0.00 | 0.02 | 0.00 | 32 | 1008.4 |
| 20260508184744 | 70 | 264 | 7.0 | 17.4 | 0.00 | 0.02 | 0.00 | 29 | 1008.8 |
| 20260508183744 | 69 | 267 | 10.4 | 12.2 | 0.00 | 0.02 | 0.00 | 30 | 1009.0 |
| 20260508182804 | 67 | 244 | 5.2 | 9.6 | 0.00 | 0.02 | 0.00 | 31 | 1009.1 |
| 20260508181745 | 68 | 205 | 9.6 | 13.0 | 0.00 | 0.02 | 0.00 | 31 | 1009.3 |
| 20260508180746 | 68 | 242 | 4.3 | 16.5 | 0.00 | 0.02 | 0.00 | 30 | 1009.5 |
| 20260508175751 | 69 | 186 | 5.2 | 11.3 | 0.00 | 0.02 | 0.00 | 31 | 1009.7 |
| 20260508174752 | 68 | 184 | 11.3 | 11.3 | 0.00 | 0.02 | 0.00 | 33 | 1010.0 |
| 20260508173813 | 68 | 201 | 6.1 | 13.9 | 0.00 | 0.02 | 0.00 | 30 | 1009.9 |
| 20260508172753 | 68 | 198 | 1.7 | 9.6 | 0.00 | 0.02 | 0.00 | 33 | 1010.0 |
| 20260508171753 | 67 | 225 | 6.1 | 12.2 | 0.00 | 0.02 | 0.00 | 31 | 1010.0 |
| 20260508170756 | 66 | 183 | 5.2 | 11.3 | 0.00 | 0.02 | 0.00 | 33 | 1010.2 |
| 20260508165739 | 66 | 211 | 8.7 | 13.9 | 0.00 | 0.02 | 0.00 | 34 | 1010.5 |
| 20260508164741 | 65 | 167 | 8.7 | 12.2 | 0.00 | 0.02 | 0.00 | 33 | 1010.6 |
| 20260508163745 | 65 | 166 | 8.7 | 13.0 | 0.00 | 0.02 | 0.00 | 37 | 1010.6 |
| 20260508162752 | 64 | 138 | 10.4 | 13.0 | 0.00 | 0.02 | 0.00 | 37 | 1010.7 |
| 20260508161815 | 62 | 170 | 10.4 | 13.0 | 0.00 | 0.02 | 0.00 | 39 | 1010.8 |
| 20260508160755 | 61 | 156 | 10.4 | 12.2 | 0.00 | 0.02 | 0.00 | 41 | 1010.9 |
| 20260508155813 | 59 | 198 | 8.7 | 10.4 | 0.00 | 0.02 | 0.00 | 43 | 1011.1 |
| 20260508154751 | 58 | 161 | 7.8 | 9.6 | 0.00 | 0.02 | 0.00 | 48 | 1011.2 |
| 20260508153816 | 57 | 190 | 4.3 | 10.4 | 0.00 | 0.02 | 0.00 | 47 | 1011.4 |
| 20260508152755 | 56 | 188 | 3.5 | 6.1 | 0.00 | 0.02 | 0.00 | 49 | 1010.5 |
| 20260508151817 | 55 | 169 | 2.6 | 6.1 | 0.00 | 0.02 | 0.00 | 48 | 1010.7 |
| 20260508150755 | 55 | 200 | 4.3 | 5.2 | 0.00 | 0.02 | 0.00 | 50 | 1010.8 |
| 20260508145738 | 53 | 200 | 4.3 | 4.3 | 0.00 | 0.02 | 0.00 | 48 | 1010.8 |
| 20260508144804 | 51 | 287 | 0.9 | 3.5 | 0.00 | 0.02 | 0.00 | 51 | 1010.8 |
| 20260508143804 | 50 | 286 | 0.0 | 4.3 | 0.00 | 0.02 | 0.00 | 54 | 1010.8 |
| 20260508142742 | 49 | 313 | 0.0 | 3.5 | 0.00 | 0.02 | 0.00 | 56 | 1010.9 |
| 20260508141741 | 48 | 313 | 0.0 | 4.3 | 0.00 | 0.02 | 0.00 | 58 | 1011.1 |
| 20260508140746 | 47 | 315 | 0.9 | 1.7 | 0.00 | 0.02 | 0.00 | 63 | 1011.1 |
| 20260508135750 | 45 | 315 | 0.9 | 3.5 | 0.00 | 0.02 | 0.00 | 63 | 1011.1 |
| 20260508134750 | 44 | 315 | 1.7 | 3.5 | 0.00 | 0.02 | 0.00 | 62 | 1011.1 |
| 20260508133809 | 44 | 315 | 2.6 | 2.6 | 0.00 | 0.02 | 0.00 | 60 | 1011.1 |
| 20260508132748 | 42 | 315 | 0.0 | 0.9 | 0.00 | 0.02 | 0.00 | 69 | 1011.1 |
| 20260508131751 | 39 | 315 | 0.0 | 1.7 | 0.00 | 0.02 | 0.00 | 73 | 1011.2 |
| 20260508130755 | 38 | 315 | 0.9 | 2.6 | 0.00 | 0.02 | 0.00 | 74 | 1011.3 |
| 20260508125756 | 37 | 315 | 0.0 | 0.0 | 0.00 | 0.02 | 0.00 | 76 | 1011.1 |
| 20260508124757 | 34 | 315 | 0.0 | 1.7 | 0.00 | 0.02 | 0.00 | 78 | 1011.2 |
| 20260508123756 | 33 | 315 | 2.6 | 2.6 | 0.00 | 0.02 | 0.00 | 79 | 1011.2 |
| 20260508122741 | 33 | 315 | 0.0 | 0.0 | 0.00 | 0.02 | 0.00 | 78 | 1011.1 |
| 20260508121742 | 33 | 315 | 0.0 | 1.7 | 0.00 | 0.02 | 0.00 | 78 | 1010.9 |
| 20260508120744 | 34 | 315 | 0.0 | 2.6 | 0.00 | 0.02 | 0.00 | 77 | 1010.7 |
| 20260508115749 | 34 | 315 | 0.0 | 0.0 | 0.00 | 0.02 | 0.00 | 76 | 1010.7 |
| 20260508114752 | 34 | 315 | 0.0 | 0.9 | 0.00 | 0.02 | 0.00 | 75 | 1010.6 |
| 20260508113753 | 36 | 315 | 0.0 | 0.9 | 0.00 | 0.02 | 0.00 | 73 | 1010.6 |
| 20260508112756 | 36 | 315 | 0.0 | 2.6 | 0.00 | 0.02 | 0.00 | 72 | 1010.6 |
| 20260508111756 | 38 | 315 | 0.9 | 4.3 | 0.00 | 0.02 | 0.00 | 68 | 1010.5 |
| 20260508110742 | 38 | 302 | 3.5 | 4.3 | 0.00 | 0.02 | 0.00 | 68 | 1010.5 |
| 20260508105741 | 39 | 313 | 3.5 | 5.2 | 0.00 | 0.02 | 0.00 | 67 | 1010.3 |
| 20260508104744 | 39 | 311 | 0.0 | 6.1 | 0.00 | 0.02 | 0.00 | 66 | 1010.3 |
| 20260508103749 | 40 | 331 | 4.3 | 7.8 | 0.00 | 0.02 | 0.00 | 65 | 1010.2 |
| 20260508102750 | 40 | 339 | 3.5 | 4.3 | 0.00 | 0.02 | 0.00 | 66 | 1010.2 |
| 20260508101755 | 39 | 299 | 1.7 | 2.6 | 0.00 | 0.02 | 0.00 | 68 | 1010.0 |
| 20260508100756 | 39 | 296 | 0.0 | 2.6 | 0.00 | 0.02 | 0.00 | 68 | 1009.9 |
| 20260508095756 | 40 | 296 | 1.7 | 3.5 | 0.00 | 0.02 | 0.00 | 67 | 1009.9 |
| 20260508094759 | 39 | 296 | 1.7 | 1.7 | 0.00 | 0.02 | 0.00 | 68 | 1009.7 |
| 20260508093742 | 39 | 279 | 0.9 | 4.3 | 0.00 | 0.02 | 0.00 | 70 | 1009.6 |
| 20260508092743 | 40 | 304 | 1.7 | 1.7 | 0.00 | 0.02 | 0.00 | 69 | 1009.5 |
| 20260508091741 | 40 | 304 | 1.7 | 7.8 | 0.00 | 0.02 | 0.00 | 69 | 1009.3 |
| 20260508090801 | 40 | 274 | 4.3 | 8.7 | 0.00 | 0.02 | 0.00 | 71 | 1009.2 |
| 20260508085745 | 38 | 277 | 3.5 | 3.5 | 0.00 | 0.02 | 0.00 | 76 | 1009.1 |
| 20260508084746 | 36 | 275 | 0.9 | 6.1 | 0.00 | 0.02 | 0.00 | 79 | 1009.0 |
| 20260508083746 | 36 | 262 | 0.9 | 1.7 | 0.00 | 0.02 | 0.00 | 80 | 1009.0 |
| 20260508082749 | 36 | 262 | 0.0 | 0.0 | 0.00 | 0.02 | 0.00 | 81 | 1008.8 |
| 20260508081753 | 37 | 262 | 0.0 | 0.0 | 0.00 | 0.02 | 0.00 | 79 | 1008.8 |
| 20260508080755 | 37 | 262 | 0.0 | 0.0 | 0.00 | 0.02 | 0.00 | 80 | 1008.8 |
| 20260508075755 | 38 | 262 | 0.0 | 0.0 | 0.00 | 0.02 | 0.00 | 79 | 1008.7 |
| 20260508074817 | 40 | 262 | 0.0 | 0.9 | 0.00 | 0.02 | 0.00 | 75 | 1008.6 |
| 20260508073755 | 41 | 262 | 0.0 | 0.9 | 0.00 | 0.02 | 0.00 | 72 | 1008.5 |
| 20260508072742 | 42 | 262 | 0.0 | 0.9 | 0.00 | 0.02 | 0.00 | 73 | 1008.5 |
| 20260508071804 | 43 | 262 | 0.9 | 2.6 | 0.00 | 0.02 | 0.00 | 72 | 1008.4 |
| 20260508070744 | 43 | 262 | 1.7 | 2.6 | 0.00 | 0.02 | 0.00 | 76 | 1008.4 |
| 20260508065744 | 43 | 262 | 0.9 | 3.5 | 0.00 | 0.02 | 0.00 | 73 | 1008.3 |
| 20260508064747 | 42 | 262 | 1.7 | 3.5 | 0.00 | 0.02 | 0.00 | 75 | 1008.3 |
| 20260508063751 | 40 | 262 | 1.7 | 2.6 | 0.00 | 0.02 | 0.00 | 80 | 1008.2 |
| 20260508062754 | 40 | 262 | 0.9 | 1.7 | 0.00 | 0.02 | 0.00 | 80 | 1008.2 |
| 20260508061817 | 40 | 262 | 0.0 | 0.0 | 0.00 | 0.02 | 0.00 | 81 | 1008.1 |
| 20260508060738 | 41 | 262 | 0.0 | 1.7 | 0.00 | 0.02 | 0.00 | 80 | 1008.0 |
| 20260508055746 | 42 | 262 | 0.0 | 2.6 | 0.00 | 0.02 | 0.02 | 78 | 1007.9 |
| 20260508054747 | 42 | 262 | 0.9 | 4.3 | 0.00 | 0.02 | 0.02 | 80 | 1007.9 |
| 20260508053748 | 44 | 200 | 2.6 | 2.6 | 0.00 | 0.02 | 0.02 | 77 | 1007.8 |
| 20260508052746 | 45 | 195 | 0.0 | 0.0 | 0.00 | 0.02 | 0.02 | 76 | 1007.7 |
| 20260508051751 | 46 | 194 | 0.0 | 0.0 | 0.00 | 0.02 | 0.02 | 74 | 1007.6 |
| 20260508050754 | 47 | 195 | 0.0 | 0.9 | 0.00 | 0.02 | 0.02 | 74 | 1007.6 |
| 20260508045756 | 47 | 195 | 0.0 | 2.6 | 0.00 | 0.02 | 0.02 | 72 | 1007.6 |
| 20260508044756 | 48 | 195 | 0.0 | 3.5 | 0.00 | 0.02 | 0.02 | 71 | 1007.6 |
| 20260508043739 | 49 | 195 | 2.6 | 3.5 | 0.00 | 0.02 | 0.02 | 73 | 1007.5 |
| 20260508042744 | 49 | 194 | 2.6 | 4.3 | 0.00 | 0.02 | 0.02 | 73 | 1007.4 |
| 20260508041744 | 48 | 188 | 2.6 | 4.3 | 0.00 | 0.02 | 0.02 | 75 | 1007.3 |
| 20260508040744 | 47 | 64 | 0.9 | 1.7 | 0.00 | 0.02 | 0.02 | 75 | 1007.2 |
| 20260508035748 | 48 | 63 | 0.0 | 2.6 | 0.00 | 0.02 | 0.02 | 74 | 1007.2 |
| 20260508034746 | 49 | 63 | 0.0 | 1.7 | 0.00 | 0.02 | 0.02 | 74 | 1007.2 |
| 20260508033745 | 49 | 63 | 0.0 | 2.6 | 0.00 | 0.02 | 0.02 | 73 | 1007.2 |
| 20260508032807 | 50 | 63 | 0.9 | 1.7 | 0.00 | 0.02 | 0.02 | 73 | 1007.1 |
| 20260508031748 | 51 | 63 | 0.0 | 0.0 | 0.00 | 0.02 | 0.02 | 71 | 1007.2 |
| 20260508030751 | 52 | 63 | 0.0 | 0.0 | 0.00 | 0.02 | 0.02 | 71 | 1006.9 |
| 20260508025750 | 53 | 63 | 0.9 | 1.7 | 0.00 | 0.02 | 0.02 | 70 | 1006.8 |
| 20260508024751 | 52 | 63 | 1.7 | 4.3 | 0.00 | 0.02 | 0.02 | 71 | 1006.8 |